Regional Weather Roundup
Issued by NWS

Home | Current Version | Previous Version | Text Only | Print | Product List | Glossary Off
Versions: 1 2 3 4 5 6 7 8 9 10 11 12 13 14 15 16 17 18 19 20 21 22 23 24 25 26 27 28 29 30 31 32 33 34 35 36 37 38 39 40 41 42 43 44 45 46 47 48 49 50

000
ASUS43 KDMX 271007
RWRIA

WEATHER ROUNDUP FOR IOWA
NATIONAL WEATHER SERVICE DES MOINES IA
500 AM CDT MON JUL 27 2015

NOTE: "FAIR" INDICATES FEW OR NO CLOUDS BELOW 12,000 FEET WITH NO
SIGNIFICANT WEATHER AND/OR OBSTRUCTIONS TO VISIBILITY.

* - THESE STATIONS ARE NOT NWS STATIONS...THUS NOT UNDER NWS
QUALITY CONTROL.  THEY ALSO DO NOT REPORT WEATHER SUCH
AS PRECIPITATION OR FOG.

IAZ001>003-012>014-020>022-031>034-043>046-271100-
   NORTHWEST IOWA

CITY           SKY/WX    TMP DP  RH WIND       PRES   REMARKS
CARROLL *      CLOUDY    72  72 100 CALM      29.89S
CHEROKEE *     CLOUDY    73  73 100 CALM      29.89R
DENISON *      CLOUDY    75  73  94 SE5       29.87R
LE MARS *      MOCLDY    77  75  94 CALM      29.88R
ORANGE CITY *  CLEAR     72  70  94 CALM      29.89S
SHELDON *      PTCLDY    72  72 100 E6        29.89S
SIOUX CITY     CLOUDY    77  73  87 E7        29.86R
SPENCER        CLOUDY    72  69  90 E6        29.91S
STORM LAKE *   PTCLDY    72  72 100 SE5       29.91S FOG
$$

IAZ055>058-069>071-079>083-090>094-271100-
   SOUTHWEST IOWA

CITY           SKY/WX    TMP DP  RH WIND       PRES   REMARKS
ATLANTIC *     CLOUDY    77  75  94 CALM      29.89R
AUDUBON *      PTCLDY    73  72  94 CALM      29.91R
CLARINDA *     CLEAR     77  77 100 CALM      29.89S
COUNCIL BLFS * CLEAR     77  75  94 SE8       29.87S
CRESTON *      MOCLDY    75  73  94 SE7       29.91R
HARLAN  *      CLOUDY    75  75 100 SE5       29.92R
LAMONI         CLOUDY    77  73  87 SE6       29.90F
RED OAK *      PTCLDY    77  77 100 CALM      29.88S
SHENANDOAH *   CLEAR     79  77  94 SE3       29.88R HX  83
$$

IAZ047>049-059>061-072>074-084-271100-
   CENTRAL IOWA

CITY           SKY/WX    TMP DP  RH WIND       PRES   REMARKS
AMES           MOCLDY    72  71  97 E5        29.90F
ANKENY *       CLEAR     72  72 100 CALM      29.89F
CHARITON *     CLEAR     73  73 100 SE7       29.91S
DES MOINES     MOCLDY    76  72  87 E5        29.89S
GRINNELL*      FOG       72  70  94 E8        29.94S VSB 1/2
KNOXVILLE *    CLEAR     73  72  94 SE5       29.90S
MARSHALLTOWN   FOG       72  71  97 E8        29.92F VSB 3/4
PELLA *        MOCLDY    73  73 100 E3        29.92S
PERRY *          N/A     72  72 100 SE5       29.90S
$$

IAZ004>006-015-016-023>025-035-036-271100-
   NORTH CENTRAL IOWA

CITY           SKY/WX    TMP DP  RH WIND       PRES   REMARKS
ALGONA *       MOCLDY    73  72  94 SE8       29.91F
CLARION *      MOCLDY    72  72 100 E9        29.92S
ESTHERVILLE    MOCLDY    70  70 100 SE7       29.91S FOG
FORT DODGE *   MOCLDY    72  70  94 SE5       29.92S
MASON CITY     CLOUDY    72  71  97 SE8       29.96S FOG
FOREST CITY *  CLOUDY    72  72 100 SE7       29.94S FOG
IOWA FALLS *   CLOUDY    72  70  94 E7        29.94S FOG
$$

IAZ007>011-017>019-026>030-037>042-050>054-066-271100-
   NORTHEAST IOWA

CITY           SKY/WX    TMP DP  RH WIND       PRES   REMARKS
CEDAR RAPIDS   MOCLDY    69  69 100 E7        29.94F
CHARLES CITY * PTCLDY    68  68 100 E8        29.96F
CLINTON *      MOCLDY    64  63  94 E6        29.98F
DUBUQUE        PTCLDY    66  64  93 CALM      29.97F FOG
MONTICELLO *   CLEAR     66  64  94 CALM      29.96S FOG
OELWEIN *      CLEAR     68  66  94 SE5       29.97F
WATERLOO       MOCLDY    69  68  96 E8        29.93F
$$

IAZ064-065-067-068-078-271100-
   EAST CENTRAL IOWA

CITY           SKY/WX    TMP DP  RH WIND       PRES   REMARKS
DAVENPORT      MOCLDY    66  64  93 E5        29.96F
IOWA CITY      MOCLDY    71  68  90 E7        29.95F
MT. PLEASANT * PTCLDY    73  70  88 NE6       29.93F FOG
MUSCATINE *    PTCLDY    72  68  88 CALM      29.94F
QUAD CITIES    CLOUDY    68  65  90 E5        29.95S
$$

IAZ062-063-075>077-085>089-095>099-271100-
   SOUTHEAST IOWA

CITY           SKY/WX    TMP DP  RH WIND       PRES   REMARKS
BURLINGTON     PTCLDY    73  72  96 NE8       29.93F
FAIRFIELD *      N/A     72  70  94 E5        29.93F
FORT MADISON * FOG       70  70 100 CALM      29.94S VSB 1/2
KEOKUK *       CLEAR     72  72 100 E5        29.91F FOG
OSKALOOSA *      N/A     72  70  94 E3        29.92F FOG
CENTERVILLE *  CLEAR     72  72 100 E5        29.93S
OTTUMWA        PTCLDY    72  72 100 E8        29.89F
WASHINGTON *   FOG       72  72 100 E5        29.95F VSB 1/4
$$

ABBREVIATIONS USED IN REMARKS
   TC - TEMPERATURES IN CELSIUS
  WCI - WIND CHILL INDEX
   HX - HEAT INDEX
  VSB - VISIBILITY
$$




USA.gov is the U.S. government's official web portal to all federal, state and local government web resources and services.